Regional Weather Roundup
Issued by NWS

Home | Current Version | Previous Version | Graphics & Text | Print | Product List | Glossary On
Versions: 1 2 3 4 5 6 7 8 9 10 11 12 13 14 15 16 17 18 19 20 21 22 23 24 25 26 27 28 29 30 31 32 33 34 35 36 37 38 39 40 41 42 43 44 45 46 47 48 49 50
000
ASUS45 KTFX 292110
RWRMT
MONTANA REGIONAL WEATHER ROUNDUP
NATIONAL WEATHER SERVICE GREAT FALLS MT
300 PM MDT SAT APR 29 2017

NOTE: "FAIR" INDICATES FEW OR NO CLOUDS BELOW 12000 FEET WITH NO
SIGNIFICANT WEATHER AND/OR OBSTRUCTIONS TO VISIBILITY.

MTZ001>007-043-292200-
WEST OF THE DIVIDE

CITY           SKY/WX    TMP DP  RH WIND       PRES   REMARKS
KALISPELL      LGT RAIN  49  41  74 S14       30.15F
MISSOULA       PTSUNNY   55  32  41 S6        30.17F
BUTTE          MOSUNNY   49  17  28 CALM      30.14F
MULLAN PASS    PTSUNNY   36  29  75 VRB3      30.17F
ANACONDA         N/A     52  18  25 N8        30.13F
DEER LODGE       N/A     54  25  32 N7        30.16F
EUREKA           N/A     54  28  37 NW5       30.11F
HAMILTON         N/A     57  21  24 NE10      30.15F
LIBBY            N/A     52  34  50 SW3       30.14S
$$

MTZ008-052>055-292200-
SOUTHWEST MONTANA

CITY           SKY/WX    TMP DP  RH WIND       PRES   REMARKS
BOZEMAN        MOSUNNY   52  27  38 VRB5      30.16F
DILLON         SUNNY     52  19  27 VRB7      30.13F
W YELLOWSTONE  MOSUNNY   43  19  39 S14       30.18F
THREE FORKS      N/A     53  53 100 SE5       30.12F
$$

MTZ009-010-012-014-046-048-049-054-292200-
EAST SLOPES AND CENTRAL MONTANA

CITY           SKY/WX    TMP DP  RH WIND       PRES   REMARKS
CUT BANK       MOSUNNY   54  21  27 W10G23    30.09F
GREAT FALLS    MOSUNNY   54  27  35 SW10      30.12F
MALMSTROM AFB  PTSUNNY   49  27  41 S16G24    30.12F
HELENA         MOSUNNY   57  20  23 W12G18    30.12F
AUGUSTA        PTSUNNY   51  27  39 S7        30.11F
BOWMANS CRNR   PTSUNNY   50  22  34 W12       30.10F
CHOTEAU          N/A     55  23  28 NW12G17   30.12F
FAIRFIELD        N/A     54  26  34 SW7       30.10F
POWER            N/A     53  23  30 SW15      30.10F
RAYNESFORD       N/A     54  27  35 W14G20    30.11F
ULM              N/A     56  30  37 W17G24    30.11F
$$

MTZ011-013-016-021-045-047-050-051-292200-
NORTH CENTRAL MONTANA

CITY           SKY/WX    TMP DP  RH WIND       PRES   REMARKS
HAVRE          MOSUNNY   57  34  41 W7        30.10S
LEWISTOWN      LGT RAIN  46  31  55 VRB5      30.15R
N BAR RANCH    PTSUNNY   52  27  37 SW16G25   30.17F
CHINOOK          N/A     57  32  38 E6        30.09F
DENTON           N/A     51  38  61 S8        30.10F
FORT BENTON      N/A     48  36  61 MISG      30.14R
GEYSER         PTSUNNY   51  28  41 W14       30.12F
GRASS RANGE    LGT RAIN  48  35  59 NW7       30.11S
JUDITH GAP       N/A     47  34  61 S25G31    30.14F
STANFORD       PTSUNNY   51  29  43 N7        30.12F
WINIFRED         N/A     53  30  42 SW6       30.13F
$$

MTZ017>020-022>027-061-062-292200-
NORTHEAST MONTANA

CITY           SKY/WX    TMP DP  RH WIND       PRES   REMARKS
GLASGOW        MOSUNNY   61  31  32 SW9G20    30.16F
JORDAN           N/A     56  33  42 S12G24    30.17F
SIDNEY         CLOUDY    56  38  50 N6        30.20F
WOLF POINT     PTSUNNY   60  31  33 W6G17     30.17F
MALTA          MOSUNNY   57  34  41 SE9       30.12F
PLENTYWOOD       N/A     57  27  30 W12       30.18F
POPLAR           N/A     59  28  31 SW5       30.19S
$$

MTZ028>42-056>058-292200-
SOUTHCENTRAL AND SOUTHEAST MONTANA

CITY           SKY/WX    TMP DP  RH WIND       PRES   REMARKS
BAKER          SUNNY     55  22  27 CALM      30.21F
BILLINGS       MOSUNNY   54  29  38 S8        30.18F
LIVINGSTON     SUNNY     54  27  35 W6G20     30.14F
MILES CITY     MOSUNNY   59  25  27 S6        30.19F
BIG TIMBER     MOSUNNY   52  34  50 N13G21    30.18F
LAUREL           N/A     54  29  38 SE8       30.15F
ROUNDUP          N/A     55  29  37 SE13      30.07F
$$

REGIONAL REPORTS...DAKOTAS

CITY           SKY/WX    TMP DP  RH WIND       PRES   REMARKS
WILLISTON      MOSUNNY   61  32  33 S9        30.20F
MINOT          PTSUNNY   63  25  23 SW9       30.19F
DICKINSON      MOSUNNY   57  19  22 MISG      30.20F
BEACH          PTSUNNY   57  23  26 NW9       30.23F
TIOGA            N/A     59  27  29 SW18      30.21S
WATFORD CITY     N/A     59  32  36 W12       30.20F
BISMARCK       SUNNY     63  17  17 VRB3      30.26S
GRAND FORKS    PTSUNNY   60  24  25 VRB6      30.31R
FARGO          MOSUNNY   60  20  21 VRB5      30.31S
BUFFALO SD       N/A     57  16  20 VRB5      30.17F
RAPID CITY     MOSUNNY   55  19  24 VRB3      30.23F
$$

REGIONAL REPORTS...WYOMING/IDAHO/WASHINGTON

CITY           SKY/WX    TMP DP  RH WIND       PRES   REMARKS
GILLETTE       SUNNY     37  28  70 SW8       30.25F WCI  31
SHERIDAN       SUNNY     43  28  55 SE13      30.22F
BUFFALO WY     SUNNY     38  26  62 S17       30.23F WCI  28
CODY           SUNNY     46  24  42 S9        30.21F
YELLOWSTONE LA   N/A     38  21  50 VRB3      30.20F
IDAHO FALLS    MOSUNNY   53  23  31 VRB7      30.21F
SALMON         SUNNY     55  27  33 NW6       30.12F
BOISE          SUNNY     58  28  32 NW7       30.22F
SPOKANE        PTSUNNY   57  32  38 S16G23    30.15F
$$

REGIONAL REPORTS...ALBERTA

CITY           SKY/WX    TMP DP  RH WIND       PRES   REMARKS
EDMONTON       MOSUNNY   52  30  43 S7        29.99F
CALGARY        PTSUNNY   52  23  32 S8        29.99F
LETHBRIDGE     MOSUNNY   57  25  28 W17G23    30.04F
MEDICINE HAT   PTSUNNY   61  30  31 SW10      30.03F
CARDSTON         N/A     54  25  32 SW13G21     N/A
MILK RIVER       N/A     55  27  33 W14G22      N/A
ONEFOUR          N/A     54  34  47 SW10        N/A
$$

REGIONAL REPORTS...SASKATCHEWAN

CITY           SKY/WX    TMP DP  RH WIND       PRES   REMARKS
SWIFT CURRENT  CLOUDY    54  27  35 SW14      30.10F
REGINA         MOSUNNY   55  27  33 SW8G20    30.17F
SASKATOON      PTSUNNY   54  23  30 W7        30.12F
CYPRESS HILLS    N/A     41  30  65 S13G20      N/A
VAL MARIE        N/A     57  27  30 S15G22      N/A
ASSINIBOIA       N/A     46  37  71 S13G20      N/A
$$



USA.gov is the U.S. government's official web portal to all federal, state and local government web resources and services.